Flag for Finland Weather past 2 weeks in Oulu, Finland

Now
54 °F

Mostly cloudy.


Feels Like: 52 °F
Forecast: 47 / 58 °F
Wind: 6 mph from South

Location: Oulu Airport

Current Time: May 25, 2015 at 3:43:07 PM

Latest Report: May 25, 2015 at 3:20 PM


Visibility: N/A

Pressure: 29.83 "Hg

Humidity: 41%

Dew point: 30 °F

Location of OuluLocation

Historic Weather in Oulu — Graph

°F

Oulu temperature yesterday

Maximum temperature yesterday: 52 °F (at 4:50 PM)
Minimum temperature yesterday: 41 °F (at 2:50 AM)
Average temperature yesterday: 46 °F

Past Weeks' High & Low Weather Summary

 TemperatureHumidityPressure
High61 °F (May 22, 11:20 AM)100% (May 11, 4:50 AM)30.01 "Hg (May 11, 4:50 AM)
Low36 °F (May 18, 5:20 AM)32% (May 10, 9:50 PM)29.18 "Hg (May 14, 6:20 AM)
Average46 °F77%29.70 "Hg
* Reported May 10 2:20 PM — May 25 2:20 PM, Oulu, Weather by CustomWeather, © 2015

Note: Actual official high and low records may vary slightly from our data, if they occured in-between our weather recording intervals... More about our weather records

Advertising

Oulu weather history for previous 24 hours

 ConditionsComfort  
Time TempWeatherWind HumidityBarometerVisibility
2:20 PM
Mon, May 25
52 °FScattered clouds.7 mph50%29.83 "HgN/A
1:50 PM52 °FPassing clouds.9 mph47%29.83 "HgN/A
1:20 PM52 °FScattered clouds.10 mph47%29.83 "HgN/A
12:50 PM52 °FScattered clouds.7 mph50%29.83 "HgN/A
12:20 PM52 °FPassing clouds.7 mph47%29.83 "HgN/A
11:50 AM52 °FPassing clouds.3 mph50%29.83 "HgN/A
11:20 AM52 °FPassing clouds.6 mph47%29.83 "HgN/A
10:50 AM52 °FPassing clouds.7 mph44%29.83 "HgN/A
10:20 AM52 °FPassing clouds.8 mph47%29.83 "HgN/A
9:50 AM50 °FPassing clouds.7 mph54%29.80 "HgN/A
9:20 AM50 °FSunny.9 mph54%29.80 "Hg10 mi
8:50 AM50 °FPassing clouds.7 mph58%29.80 "HgN/A
8:20 AM48 °FPassing clouds.8 mph62%29.80 "HgN/A
7:50 AM48 °FPassing clouds.9 mph62%29.80 "HgN/A
7:20 AM46 °FPassing clouds.10 mph66%29.80 "HgN/A
6:50 AM45 °FPassing clouds.8 mph71%29.80 "HgN/A
6:20 AM43 °FSunny.8 mph76%29.77 "Hg10 mi
5:50 AM43 °FSunny.7 mph71%29.77 "Hg10 mi
5:20 AM41 °FSunny.7 mph81%29.77 "Hg10 mi
4:50 AM41 °FSunny.7 mph76%29.77 "Hg10 mi
4:20 AM43 °FClear.6 mph71%29.77 "Hg10 mi
3:50 AM43 °FClear.7 mph76%29.77 "Hg10 mi
3:20 AM43 °FClear.7 mph76%29.77 "Hg10 mi
2:50 AM43 °FClear.10 mph76%29.77 "Hg10 mi
2:20 AM43 °FClear.9 mph71%29.77 "Hg10 mi
1:50 AM45 °FClear.10 mph66%29.77 "Hg10 mi
1:20 AM45 °FClear.12 mph71%29.77 "Hg10 mi
12:20 AM45 °FPassing clouds.9 mph66%29.77 "HgN/A
11:50 PM
Sun, May 24
45 °FPassing clouds.9 mph66%29.77 "HgN/A
11:20 PM45 °FSunny.12 mph66%29.77 "Hg10 mi
10:50 PM46 °FPassing clouds.10 mph62%29.74 "HgN/A
10:20 PM46 °FSunny.13 mph62%29.74 "Hg10 mi
9:50 PM46 °FSunny.13 mph62%29.74 "Hg10 mi
9:20 PM48 °FSunny.12 mph62%29.74 "Hg10 mi
8:50 PM48 °FSunny.15 mph62%29.74 "Hg10 mi
8:20 PM50 °FSunny.12 mph58%29.74 "Hg10 mi
7:50 PM52 °FSunny.14 mph50%29.74 "Hg10 mi
7:20 PM52 °FPassing clouds.13 mph50%29.74 "HgN/A
6:50 PM52 °FPassing clouds.16 mph50%29.74 "HgN/A
6:20 PM52 °FSunny.16 mph47%29.74 "Hg10 mi
5:50 PM52 °FSunny.16 mph47%29.74 "Hg10 mi
5:20 PM50 °FPassing clouds.15 mph50%29.74 "HgN/A
4:50 PM52 °FPassing clouds.17 mph50%29.74 "HgN/A
4:20 PM50 °FScattered clouds.17 mph50%29.74 "HgN/A
3:50 PM48 °FScattered clouds.16 mph54%29.74 "HgN/A
3:20 PM48 °FPassing clouds.17 mph58%29.71 "HgN/A
Weather by CustomWeather, © 2015

See weather overviewHow to use our weather pages